When you browse on this site, cookies collect data to enhance your experience and personalize the content and advertising you see.
Visit our Privacy Policy to learn more. By continuing to use the site, you agree to this use of cookies and data.
  • In Hungary
  • List of Countries
  • For 7 days
  • Water Temperature
  • Weather Map
  • News
  • Weather Widgets
  • user-avatar
    Login

    Hourly Weather Amlame

    Today, 16 December, Monday

    Time Temperature Precipitation Wind Pressure Humidity
    00:00 +24°C° 0 mm 0 mps 722 mmHg 36%
    01:00 +24°C° 0 mm 0 mps 722 mmHg 38%
    02:00 +23°C° 0 mm 0 mps 721 mmHg 40%
    03:00 +23°C° 0 mm 0 mps 721 mmHg 43%
    04:00 +23°C° 0 mm 0 mps 721 mmHg 43%
    05:00 +24°C° 0 mm 1 mps 721 mmHg 44%
    06:00 +24°C° 0 mm 1 mps 721 mmHg 44%
    07:00 +26°C° 0 mm 1 mps 722 mmHg 42%
    08:00 +28°C° 0 mm 1 mps 722 mmHg 39%
    09:00 +31°C° 0 mm 1 mps 723 mmHg 37%
    10:00 +33°C° 0 mm 1 mps 723 mmHg 31%
    11:00 +35°C° 0 mm 2 mps 722 mmHg 25%
    12:00 +37°C° 0 mm 2 mps 722 mmHg 19%
    13:00 +37°C° 0 mm 2 mps 721 mmHg 18%
    14:00 +37°C° 0 mm 2 mps 720 mmHg 17%
    15:00 +37°C° 0 mm 1 mps 719 mmHg 17%
    16:00 +35°C° 0 mm 1 mps 719 mmHg 19%
    17:00 +33°C° 0 mm 1 mps 719 mmHg 21%
    18:00 +29°C° 0 mm 0 mps 719 mmHg 23%
    19:00 +30°C° 0 mm 1 mps 720 mmHg 27%
    20:00 +29°C° 0 mm 1 mps 720 mmHg 32%
    21:00 +28°C° 0 mm 1 mps 721 mmHg 36%
    22:00 +27°C° 0 mm 1 mps 721 mmHg 43%
    23:00 +27°C° 0 mm 1 mps 721 mmHg 49%

    Tomorrow, 17 December, Tuesday

    Time Temperature Precipitation Wind Pressure Humidity
    00:00 +26°C° 0 mm 1 mps 721 mmHg 55%
    01:00 +25°C° 0 mm 1 mps 720 mmHg 55%
    02:00 +25°C° 0 mm 1 mps 720 mmHg 55%
    03:00 +25°C° 0 mm 1 mps 720 mmHg 55%
    04:00 +25°C° 0 mm 1 mps 720 mmHg 54%
    05:00 +24°C° 0 mm 1 mps 720 mmHg 53%
    06:00 +24°C° 0 mm 1 mps 721 mmHg 51%
    07:00 +25°C° 0 mm 0 mps 722 mmHg 45%
    08:00 +27°C° 0 mm 0 mps 722 mmHg 39%
    09:00 +30°C° 0 mm 0 mps 723 mmHg 32%
    10:00 +34°C° 0 mm 1 mps 723 mmHg 27%
    11:00 +35°C° 0 mm 1 mps 722 mmHg 22%
    12:00 +37°C° 0 mm 1 mps 722 mmHg 18%
    13:00 +37°C° 0 mm 1 mps 721 mmHg 18%
    14:00 +37°C° 0 mm 1 mps 721 mmHg 18%
    15:00 +37°C° 0 mm 1 mps 720 mmHg 18%
    16:00 +35°C° 0 mm 1 mps 720 mmHg 22%
    17:00 +33°C° 0 mm 1 mps 720 mmHg 27%
    18:00 +29°C° 0 mm 0 mps 720 mmHg 31%
    19:00 +30°C° 0 mm 1 mps 721 mmHg 41%
    20:00 +29°C° 0 mm 1 mps 721 mmHg 50%
    21:00 +28°C° 0 mm 1 mps 722 mmHg 59%
    22:00 +27°C° 0 mm 1 mps 722 mmHg 66%
    23:00 +26°C° 0 mm 1 mps 722 mmHg 73%

    Day after tomorrow, 18 December, Wednesday

    Time Temperature Precipitation Wind Pressure Humidity
    00:00 +26°C° 0 mm 2 mps 722 mmHg 80%
    01:00 +25°C° 0 mm 1 mps 721 mmHg 83%
    02:00 +25°C° 0 mm 1 mps 721 mmHg 86%
    03:00 +24°C° 0 mm 1 mps 720 mmHg 89%
    04:00 +24°C° 0 mm 1 mps 721 mmHg 89%
    05:00 +22°C° 0 mm 0 mps 721 mmHg 89%
    06:00 +22°C° 0 mm 0 mps 721 mmHg 89%
    07:00 +24°C° 0 mm 0 mps 722 mmHg 77%
    08:00 +29°C° 0 mm 1 mps 723 mmHg 66%
    09:00 +31°C° 0 mm 1 mps 723 mmHg 54%
    10:00 +33°C° 0 mm 1 mps 723 mmHg 46%
    11:00 +35°C° 0 mm 1 mps 723 mmHg 38%
    12:00 +37°C° 0 mm 1 mps 722 mmHg 30%
    13:00 +37°C° 0 mm 1 mps 722 mmHg 29%
    14:00 +37°C° 0 mm 1 mps 721 mmHg 28%
    15:00 +37°C° 0 mm 1 mps 721 mmHg 26%
    16:00 +35°C° 0 mm 1 mps 721 mmHg 32%
    17:00 +33°C° 0 mm 1 mps 721 mmHg 39%
    18:00 +31°C° 0 mm 1 mps 720 mmHg 45%
    19:00 +30°C° 0 mm 1 mps 721 mmHg 50%
    20:00 +30°C° 0 mm 1 mps 722 mmHg 55%
    21:00 +29°C° 0 mm 1 mps 722 mmHg 59%
    22:00 +28°C° 0 mm 1 mps 722 mmHg 63%
    23:00 +28°C° 0 mm 1 mps 722 mmHg 67%

    19 December, Thursday

    Time Temperature Precipitation Wind Pressure Humidity
    00:00 +27°C° 0 mm 1 mps 722 mmHg 71%
    01:00 +26°C° 0 mm 1 mps 722 mmHg 73%
    02:00 +24°C° 0 mm 0 mps 721 mmHg 76%
    03:00 +23°C° 0 mm 0 mps 721 mmHg 79%
    04:00 +23°C° 0 mm 0 mps 721 mmHg 80%
    05:00 +23°C° 0 mm 0 mps 722 mmHg 81%
    06:00 +22°C° 0 mm 0 mps 722 mmHg 82%
    07:00 +27°C° 0 mm 1 mps 722 mmHg 69%
    08:00 +30°C° 0 mm 1 mps 723 mmHg 56%
    09:00 +32°C° 0 mm 1 mps 723 mmHg 43%
    10:00 +34°C° 0 mm 1 mps 723 mmHg 38%
    11:00 +36°C° 0 mm 2 mps 722 mmHg 33%
    12:00 +38°C° 0 mm 3 mps 722 mmHg 28%
    13:00 +38°C° 0 mm 3 mps 721 mmHg 27%
    14:00 +38°C° 0 mm 3 mps 721 mmHg 26%
    15:00 +39°C° 0 mm 2 mps 720 mmHg 25%
    16:00 +37°C° 0 mm 2 mps 720 mmHg 28%
    17:00 +36°C° 0 mm 2 mps 720 mmHg 32%
    18:00 +33°C° 0 mm 1 mps 721 mmHg 36%
    19:00 +31°C° 0.1 mm 1 mps 721 mmHg 47%
    20:00 +30°C° 0.1 mm 2 mps 721 mmHg 58%
    21:00 +28°C° 0.1 mm 2 mps 722 mmHg 68%
    22:00 +28°C° 0 mm 1 mps 722 mmHg 73%
    23:00 +27°C° 0 mm 1 mps 722 mmHg 77%

    20 December, Friday

    Time Temperature Precipitation Wind Pressure Humidity
    00:00 +26°C° 0 mm 1 mps 722 mmHg 81%
    01:00 +26°C° 0 mm 1 mps 722 mmHg 84%
    02:00 +25°C° 0 mm 1 mps 722 mmHg 87%
    03:00 +25°C° 0 mm 1 mps 721 mmHg 90%
    04:00 +25°C° 0 mm 1 mps 722 mmHg 91%
    05:00 +24°C° 0 mm 1 mps 722 mmHg 91%
    06:00 +24°C° 0 mm 1 mps 722 mmHg 92%
    07:00 +27°C° 0 mm 1 mps 723 mmHg 81%
    08:00 +29°C° 0 mm 1 mps 723 mmHg 70%
    09:00 +31°C° 0 mm 1 mps 724 mmHg 59%
    10:00 +33°C° 0 mm 1 mps 723 mmHg 51%
    11:00 +35°C° 0 mm 1 mps 723 mmHg 42%
    12:00 +36°C° 0 mm 1 mps 723 mmHg 34%
    13:00 +37°C° 0.1 mm 2 mps 722 mmHg 34%
    14:00 +37°C° 0.1 mm 2 mps 721 mmHg 34%
    15:00 +37°C° 0.1 mm 2 mps 720 mmHg 34%
    16:00 +35°C° 0 mm 2 mps 720 mmHg 40%
    17:00 +32°C° 0 mm 2 mps 720 mmHg 47%
    18:00 +31°C° 0 mm 2 mps 720 mmHg 53%
    19:00 +30°C° 0 mm 2 mps 721 mmHg 58%
    20:00 +29°C° 0 mm 2 mps 721 mmHg 63%
    21:00 +28°C° 0 mm 2 mps 722 mmHg 69%
    22:00 +27°C° 0 mm 2 mps 722 mmHg 73%
    23:00 +27°C° 0 mm 1 mps 722 mmHg 77%

    21 December, Saturday

    Time Temperature Precipitation Wind Pressure Humidity
    00:00 +26°C° 0 mm 1 mps 722 mmHg 81%
    01:00 +26°C° 0 mm 1 mps 722 mmHg 84%
    02:00 +25°C° 0 mm 1 mps 721 mmHg 86%
    03:00 +23°C° 0 mm 0 mps 721 mmHg 88%
    04:00 +22°C° 0 mm 0 mps 721 mmHg 89%
    05:00 +22°C° 0 mm 0 mps 722 mmHg 89%
    06:00 +22°C° 0 mm 0 mps 722 mmHg 90%
    07:00 +25°C° 0 mm 0 mps 723 mmHg 78%
    08:00 +27°C° 0 mm 0 mps 723 mmHg 66%
    09:00 +32°C° 0 mm 1 mps 724 mmHg 54%
    10:00 +33°C° 0 mm 1 mps 724 mmHg 47%
    11:00 +35°C° 0 mm 1 mps 723 mmHg 40%
    12:00 +37°C° 0 mm 2 mps 723 mmHg 33%
    13:00 +36°C° 0 mm 1 mps 722 mmHg 32%
    14:00 +36°C° 0 mm 1 mps 722 mmHg 30%
    15:00 +36°C° 0 mm 1 mps 721 mmHg 29%
    16:00 +35°C° 0 mm 1 mps 721 mmHg 34%
    17:00 +33°C° 0 mm 1 mps 721 mmHg 40%
    18:00 +32°C° 0 mm 1 mps 721 mmHg 45%
    19:00 +30°C° 0.1 mm 1 mps 721 mmHg 52%
    20:00 +29°C° 0.1 mm 2 mps 722 mmHg 60%
    21:00 +28°C° 0.1 mm 2 mps 722 mmHg 67%
    22:00 +27°C° 0 mm 1 mps 722 mmHg 72%
    23:00 +26°C° 0 mm 1 mps 722 mmHg 76%
    Show more